Monroe, WI

9:04 PM CDT on September 19, 2019 (GMT -0500)
Monroe Municipal

Weather History for KEFT - August, 2019

Change the Weather History Date:

Saturday, August 24, 2019

  Actual Average Record
Temperature  
Mean Temperature 62 °F -  
Max Temperature 73 °F 76 °F 91 °F (2012)
Min Temperature 52 °F 48 °F 24 °F (1998)
Degree Days  
Heating Degree Days 3    
Growing Degree Days 12 (Base 50)    
Moisture  
Dew Point 52 °F    
Average Humidity 71    
Maximum Humidity 96    
Minimum Humidity 44    
Precipitation  
Precipitation 0.00 in - - ()
Sea Level Pressure  
Sea Level Pressure 30.25 in    
Wind  
Wind Speed 6 mph (ENE)    
Max Wind Speed 12 mph    
Max Gust Speed 16 mph    
Visibility 10 miles    
Events      
Averages and records for this station are not official NWS values.
T = Trace of Precipitation, MM = Missing Value Source: NWS Daily Summary

Daily Weather History Graph

Daily Weather History Graph

Search for Another Location

Airport or City:

Astronomy

Aug. 24, 2019 Rise Set
Actual Time 6:14 AM CDT 7:46 PM CDT
Civil Twilight 5:44 AM CDT 8:15 PM CDT
Nautical Twilight 5:08 AM CDT 8:51 PM CDT
Astronomical Twilight 4:30 AM CDT 9:29 PM CDT
Moon 12:04 AM CDT (8/24) 3:05 PM CDT (8/24)
Length of Visible Light 14h 30m
Length of Day
13h 31m
Last Quarter, 39% of the Moon is Illuminated
Aug 24
Last Quarter
Aug 30
New
Sep 5
First Quarter
Sep 13
Full
Sep 21
Last Quarter

Hourly Weather History & Observations

Time (CDT) Temp. Dew Point Humidity Pressure Visibility Wind Dir Wind Speed Gust Speed Precip Events Conditions
12:15 AM 56.8 °F 52.0 °F 84% 30.27 in 10.0 mi East 3.5 mph - N/A   Clear
12:35 AM 56.7 °F 51.6 °F 83% 30.27 in 10.0 mi ENE 3.5 mph - N/A   Clear
12:55 AM 56.7 °F 52.2 °F 85% 30.27 in 10.0 mi Calm Calm - N/A   Clear
1:15 AM 56.5 °F 52.0 °F 85% 30.26 in 10.0 mi NE 4.6 mph - N/A   Clear
1:35 AM 55.8 °F 51.6 °F 86% 30.26 in 10.0 mi NE 5.8 mph - N/A   Clear
1:55 AM 56.3 °F 51.3 °F 83% 30.26 in 10.0 mi NE 4.6 mph - N/A   Clear
2:15 AM 56.3 °F 51.4 °F 84% 30.27 in 10.0 mi Calm Calm - N/A   Clear
2:35 AM 56.5 °F 51.3 °F 83% 30.28 in 10.0 mi NNE 4.6 mph - N/A   Clear
3:15 AM 55.0 °F 51.3 °F 87% 30.28 in 10.0 mi NNE 5.8 mph - N/A   Clear
3:35 AM 54.1 °F 51.8 °F 92% 30.27 in 10.0 mi NNE 6.9 mph - N/A   Clear
3:55 AM 54.3 °F 51.8 °F 91% 30.28 in 10.0 mi NNE 5.8 mph - N/A   Clear
4:15 AM 53.2 °F 51.4 °F 94% 30.28 in 10.0 mi NNE 5.8 mph - N/A   Clear
4:35 AM 53.6 °F 52.0 °F 94% 30.28 in 10.0 mi NNE 5.8 mph - N/A   Clear
4:55 AM 52.9 °F 51.4 °F 95% 30.27 in 10.0 mi NNE 6.9 mph - N/A   Clear
5:15 AM 53.6 °F 52.0 °F 94% 30.27 in 10.0 mi NNE 6.9 mph - N/A   Clear
5:35 AM 53.4 °F 51.8 °F 94% 30.28 in 10.0 mi NNE 5.8 mph - N/A   Clear
5:55 AM 52.5 °F 51.3 °F 95% 30.28 in 10.0 mi NNE 6.9 mph - N/A   Clear
6:15 AM 52.7 °F 51.6 °F 96% 30.28 in 10.0 mi NNE 6.9 mph - N/A   Clear
6:35 AM 52.9 °F 51.4 °F 95% 30.28 in 10.0 mi NNE 6.9 mph - N/A   Clear
6:55 AM 53.1 °F 51.4 °F 94% 30.28 in 10.0 mi NNE 6.9 mph - N/A   Clear
7:15 AM 54.3 °F 52.7 °F 94% 30.29 in 10.0 mi NNE 6.9 mph - N/A   Clear
7:35 AM 55.4 °F 53.2 °F 92% 30.29 in 10.0 mi NNE 6.9 mph - N/A   Clear
7:55 AM 57.0 °F 54.3 °F 91% 30.30 in 10.0 mi NNE 4.6 mph - N/A   Clear
8:15 AM 58.8 °F 55.6 °F 89% 30.29 in 10.0 mi NE 6.9 mph - N/A   Clear
8:35 AM 60.6 °F 56.3 °F 86% 30.29 in 10.0 mi NE 6.9 mph - N/A   Clear
8:55 AM 62.1 °F 57.4 °F 85% 30.28 in 10.0 mi ENE 5.8 mph - N/A   Clear
9:15 AM 63.7 °F 57.6 °F 80% 30.29 in 10.0 mi ENE 5.8 mph - N/A   Clear
9:35 AM 64.8 °F 57.2 °F 76% 30.29 in 10.0 mi East 5.8 mph - N/A   Clear
9:55 AM 66.7 °F 57.9 °F 73% 30.29 in 10.0 mi East 6.9 mph - N/A   Clear
10:15 AM 68.2 °F 56.5 °F 66% 30.28 in 10.0 mi ESE 8.1 mph - N/A   Clear
10:35 AM 68.5 °F 54.7 °F 61% 30.28 in 10.0 mi ESE 6.9 mph - N/A   Mostly Cloudy
10:55 AM 69.8 °F 53.6 °F 56% 30.28 in 10.0 mi SE 9.2 mph - N/A   Scattered Clouds
11:15 AM 70.7 °F 52.0 °F 51% 30.28 in 10.0 mi SE 9.2 mph - N/A   Clear
11:35 AM 71.1 °F 50.4 °F 48% 30.27 in 10.0 mi East 11.5 mph 16.1 mph N/A   Scattered Clouds
11:55 AM 70.3 °F 51.1 °F 50% 30.27 in 10.0 mi SE 8.1 mph - N/A   Scattered Clouds
12:15 PM 71.6 °F 49.8 °F 46% 30.27 in 10.0 mi ESE 9.2 mph - N/A   Scattered Clouds
12:35 PM 71.8 °F 49.8 °F 46% 30.27 in 10.0 mi ESE 5.8 mph - N/A   Mostly Cloudy
12:55 PM 72.9 °F 50.0 °F 44% 30.26 in 10.0 mi East 4.6 mph - N/A   Mostly Cloudy
1:15 PM 71.4 °F 49.8 °F 46% 30.26 in 10.0 mi ESE 5.8 mph 16.1 mph N/A   Mostly Cloudy
1:35 PM 71.4 °F 51.4 °F 49% 30.25 in 10.0 mi SE 10.4 mph - N/A   Overcast
1:55 PM 72.7 °F 50.9 °F 46% 30.25 in 10.0 mi East 6.9 mph - N/A   Scattered Clouds
2:15 PM 71.1 °F 51.3 °F 49% 30.24 in 10.0 mi ESE 5.8 mph - N/A   Mostly Cloudy
2:55 PM 72.7 °F 52.2 °F 48% 30.23 in 10.0 mi ESE 8.1 mph - N/A   Mostly Cloudy
3:15 PM 71.4 °F 52.9 °F 52% 30.23 in 10.0 mi East 9.2 mph - N/A   Scattered Clouds
3:35 PM 70.5 °F 53.1 °F 54% 30.22 in 10.0 mi East 5.8 mph - N/A   Mostly Cloudy
3:55 PM 70.9 °F 52.7 °F 53% 30.22 in 10.0 mi East 10.4 mph - N/A   Mostly Cloudy
4:15 PM 71.4 °F 51.3 °F 49% 30.22 in 10.0 mi East 8.1 mph - N/A   Mostly Cloudy
4:35 PM 71.8 °F 52.2 °F 50% 30.21 in 10.0 mi East 11.5 mph - N/A   Mostly Cloudy
4:55 PM 70.7 °F 52.5 °F 52% 30.21 in 10.0 mi East 4.6 mph - N/A   Mostly Cloudy
5:15 PM 72.0 °F 52.2 °F 50% 30.21 in 10.0 mi ESE 9.2 mph - N/A   Scattered Clouds
5:35 PM 72.0 °F 52.3 °F 50% 30.20 in 10.0 mi East 10.4 mph - N/A   Scattered Clouds
5:55 PM 70.9 °F 52.3 °F 52% 30.20 in 10.0 mi East 8.1 mph - N/A   Scattered Clouds
6:15 PM 70.9 °F 52.7 °F 53% 30.20 in 10.0 mi East 6.9 mph - N/A   Scattered Clouds
6:35 PM 69.3 °F 52.2 °F 54% 30.20 in 10.0 mi East 5.8 mph - N/A   Scattered Clouds
6:55 PM 68.2 °F 51.8 °F 56% 30.20 in 10.0 mi East 6.9 mph - N/A   Clear
7:15 PM 66.0 °F 51.8 °F 60% 30.19 in 10.0 mi East 6.9 mph - N/A   Clear
7:35 PM 64.8 °F 52.3 °F 64% 30.19 in 10.0 mi East 5.8 mph - N/A   Clear
7:55 PM 63.5 °F 52.3 °F 67% 30.20 in 10.0 mi East 5.8 mph - N/A   Clear
8:15 PM 62.6 °F 52.2 °F 69% 30.20 in 10.0 mi East 5.8 mph - N/A   Clear
8:35 PM 61.9 °F 51.3 °F 68% 30.21 in 10.0 mi East 4.6 mph - N/A   Clear
8:55 PM 61.2 °F 50.9 °F 69% 30.22 in 10.0 mi East 3.5 mph - N/A   Clear
9:15 PM 60.3 °F 50.9 °F 71% 30.22 in 10.0 mi East 4.6 mph - N/A   Clear
9:35 PM 59.2 °F 50.7 °F 74% 30.22 in 10.0 mi East 4.6 mph - N/A   Clear
9:55 PM 59.0 °F 50.7 °F 74% 30.22 in 10.0 mi East 4.6 mph - N/A   Clear
10:15 PM 58.3 °F 50.9 °F 76% 30.22 in 10.0 mi East 4.6 mph - N/A   Clear
10:35 PM 58.1 °F 50.7 °F 76% 30.22 in 10.0 mi East 4.6 mph - N/A   Clear
10:55 PM 57.2 °F 50.9 °F 79% 30.22 in 10.0 mi East 4.6 mph - N/A   Clear
11:15 PM 57.4 °F 50.9 °F 79% 30.21 in 10.0 mi East 4.6 mph - N/A   Clear
11:35 PM 57.2 °F 50.9 °F 79% 30.21 in 10.0 mi East 5.8 mph - N/A   Clear
11:55 PM 57.4 °F 50.9 °F 79% 30.20 in 10.0 mi East 6.9 mph - N/A   Clear